Panama City, FL

6:36 AM CDT on June 24, 2018 (GMT -0500)
Northwest Florida Beaches International

Weather History for KECP - October, 2017

Change the Weather History Date:

Friday, October 13, 2017

  Actual Average Record
Temperature  
Mean Temperature 81 °F -  
Max Temperature 90 °F - 90 °F (2017)
Min Temperature 71 °F - 57 °F (2016)
Degree Days  
Heating Degree Days 0    
Cooling Degree Days 16    
Growing Degree Days 32 (Base 50)    
Moisture  
Dew Point 70 °F    
Average Humidity 68    
Maximum Humidity 94    
Minimum Humidity 41    
Precipitation  
Precipitation 0.00 in - 0.02 in (2010)
Month to date precipitation 1.77  
Year to date precipitation 60.39  
Sea Level Pressure  
Sea Level Pressure 30.08 in    
Wind  
Wind Speed 3 mph (NE)    
Max Wind Speed 13 mph    
Max Gust Speed 17 mph    
Visibility 7 miles    
Events      
T = Trace of Precipitation, MM = Missing Value Source: NWS Daily Summary

Daily Weather History Graph

Daily Weather History Graph

Search for Another Location

Airport or City:

Astronomy

Oct. 13, 2017 Rise Set
Actual Time 7:44 AM EDT 7:14 PM EDT
Civil Twilight 7:20 AM EDT 7:38 PM EDT
Nautical Twilight 6:52 AM EDT 8:06 PM EDT
Astronomical Twilight 6:24 AM EDT 8:33 PM EDT
Moon 1:35 AM EDT (10/13) 3:31 PM EDT (10/13)
Length of Visible Light 12h 18m
Length of Day
11h 29m
Last Quarter, 37% of the Moon is Illuminated
Oct 13
Last Quarter
Oct 19
New
Oct 27
First Quarter
Nov 4
Full
Nov 10
Last Quarter

Hourly Weather History & Observations

Time (EDT) Temp. Heat Index Dew Point Humidity Pressure Visibility Wind Dir Wind Speed Gust Speed Precip Events Conditions
12:53 AM 77.0 °F - 75.0 °F 94% 30.05 in 10.0 mi Calm Calm - N/A   Partly Cloudy
1:53 AM 75.9 °F - 73.9 °F 94% 30.05 in 7.0 mi Calm Calm - N/A   Clear
2:53 AM 75.0 °F - 73.9 °F 96% 30.05 in 5.0 mi Calm Calm - N/A   Clear
3:53 AM 75.0 °F - 73.0 °F 94% 30.06 in 8.0 mi Calm Calm - N/A   Partly Cloudy
4:53 AM 75.0 °F - 73.0 °F 94% 30.06 in 7.0 mi Calm Calm - N/A   Clear
5:49 AM 75.2 °F - 73.4 °F 94% 30.03 in 3.0 mi NNE 4.6 mph - N/A   Scattered Clouds
5:53 AM 75.0 °F - 73.9 °F 96% 30.07 in 1.5 mi NNE 4.6 mph - N/A   Mostly Cloudy
6:20 AM 75.0 °F - 73.0 °F 94% 30.04 in 2.5 mi Calm Calm - N/A   Mostly Cloudy
6:22 AM 75.0 °F - 73.0 °F 94% 30.04 in 3.0 mi NE 3.5 mph - N/A   Mostly Cloudy
6:39 AM 75.0 °F - 73.9 °F 96% 30.05 in 5.0 mi NE 4.6 mph - N/A   Scattered Clouds
6:53 AM 75.0 °F - 73.9 °F 96% 30.08 in 3.0 mi ENE 6.9 mph - N/A   Mostly Cloudy
6:57 AM 75.0 °F - 73.9 °F 96% 30.05 in 1.5 mi ENE 5.8 mph - N/A   Mostly Cloudy
7:07 AM 75.0 °F - 73.9 °F 96% 30.05 in 0.8 mi ENE 6.9 mph - N/A   Mist
7:14 AM 73.9 °F - 73.0 °F 97% 30.05 in 0.8 mi ENE 5.8 mph - N/A   Mist
7:23 AM 73.9 °F - 73.0 °F 97% 30.06 in 1.2 mi ENE 4.6 mph - N/A   Overcast
7:29 AM 73.9 °F - 73.0 °F 97% 30.06 in 3.0 mi ENE 4.6 mph - N/A   Mostly Cloudy
7:38 AM 73.9 °F - 73.0 °F 97% 30.06 in 6.0 mi ENE 3.5 mph - N/A   Scattered Clouds
7:53 AM 73.9 °F - 72.0 °F 93% 30.10 in 6.0 mi NE 3.5 mph - N/A   Partly Cloudy
8:53 AM 75.0 °F - 73.0 °F 94% 30.12 in 10.0 mi NE 5.8 mph - N/A   Scattered Clouds
9:53 AM 77.0 °F - 72.0 °F 84% 30.14 in 10.0 mi ENE 6.9 mph - N/A   Scattered Clouds
10:53 AM 81.0 °F 84.1 °F 69.1 °F 67% 30.14 in 10.0 mi NE 8.1 mph - N/A   Clear
11:53 AM 84.0 °F 84.9 °F 63.0 °F 49% 30.14 in 10.0 mi NNE 9.2 mph - N/A   Clear
12:53 PM 86.0 °F 88.2 °F 66.0 °F 51% 30.13 in 10.0 mi NNE 8.1 mph - N/A   Clear
1:53 PM 87.1 °F 88.3 °F 64.0 °F 46% 30.09 in 10.0 mi East 10.4 mph - N/A   Clear
2:53 PM 89.1 °F 90.0 °F 63.0 °F 42% 30.07 in 10.0 mi NE 9.2 mph - N/A   Clear
3:53 PM 90.0 °F 90.3 °F 62.1 °F 39% 30.06 in 10.0 mi NE 11.5 mph - N/A   Clear
4:53 PM 90.0 °F 90.3 °F 62.1 °F 39% 30.06 in 10.0 mi ENE 4.6 mph - N/A   Clear
5:53 PM 88.0 °F 89.3 °F 64.0 °F 45% 30.06 in 10.0 mi NNE 9.2 mph - N/A   Clear
6:53 PM 84.0 °F 86.3 °F 66.0 °F 55% 30.07 in 10.0 mi NE 5.8 mph - N/A   Clear
7:53 PM 78.1 °F - 68.0 °F 71% 30.08 in 10.0 mi NE 4.6 mph - N/A   Clear
8:53 PM 75.0 °F - 68.0 °F 79% 30.10 in 10.0 mi NE 4.6 mph - N/A   Clear
9:53 PM 73.0 °F - 66.9 °F 81% 30.12 in 10.0 mi Calm Calm - N/A   Clear
10:53 PM 73.0 °F - 64.9 °F 76% 30.13 in 10.0 mi NNE 4.6 mph - N/A   Clear
11:53 PM 72.0 °F - 64.0 °F 76% 30.13 in 10.0 mi NE 4.6 mph - N/A   Clear